GEESAT 4-01

导读

GEESAT 4-01是中国于2025年8月8日发射的商业卫星,隶属于吉利未来出行星座体系,由吉利旗下时空道宇研制运营。作为低轨卫星布局中的重要节点,该卫星主要服务于未来智慧出行领域,可为全球提供高精度定位、万物互联等服务,助力智能网联汽车、自动驾驶等产业发展,推动天地一体化通信网络建设,支撑中国商业航天产业落地与全球化服务拓展。

基本信息
目录编号:
65119
目录名称:
GEESAT 4-01
国际标识:
2025-170A
轨道中心:
EARTH
卫星名称:
GEESAT 4-01
卫星全名:
GEESAT 4-01
卫星状态:
在轨 (已飞行308 天)
发射日期:
2025-08-08 UTC
国别 :
中国 (CN)
星等 :
--
轨道信息
数据来源 国际轨道数据 AOE轨道数据
星历时间 2026-06-12T13:58:03+0800
14小时前
查看轨道信息
2026-06-12T03:00:00+0800
1天前
查看轨道信息
半长轴 6994.982km 6994.941km
偏心率 0.0010095 0.0011575
轨道倾角 49.987° 49.984°
近地点辐角 28.897° 23.620°
升交点赤经 197.366° 199.494°
平近点角 331.252° 53.503°
近地点 609.783km 608.707km
远地点 623.907km 624.901km
周期 97.038分钟 97.037分钟
每日圈数 14.839623 14.839755
详细信息
使用方式:
暂无
2D轨道图
3D轨道图
轨道高度分析图
轨道倾角分析图
轨道综合分析图
查看轨道综合分析图